www.pogodaiklimat.ru

Погода и климат >> Архив погоды >> Самоа >> Станция Le Piu Tai


ПОГОДА на Станции Le Piu Tai

  • Прогноз погоды на Станции Le Piu Tai
  • Монитор погоды на Станции Le Piu Tai

АРХИВ ПОГОДЫ на Станции Le Piu Tai

Время (UTC), дата Ветер
(напр.,м/с)
 
Видим.   Явления Облачность Т
(С)
Тd
(С)
f
(%)
Тe
(С)
Тes
(С)
Комфортность P
(гПа)
Po
(гПа)
Тmin
(С)
Tmax
(С)
R
(мм)
R24
(мм)
S
(см)
09 19.03 ЮВ 1 н/о н/о +26.5 +26.7 100 +40 +40 очень
душно
1008.9 995.1
12 19.03 ЮВ 1 н/о н/о +26.5 +26.0 97 +40 +40 очень
душно
1007.2 993.5 +32.3
15 19.03 ЮВ 1 н/о н/о +26.6 +25.5 94 +39 +39 очень
душно
1006.1 992.4
18 19.03 ЮВ 1 н/о н/о +26.5 +25.4 94 +39 +39 очень
душно
1007.3 993.6
21 19.03 В 2 н/о н/о +31.3 +28.2 84 +52 +52 опасность
перегрева
1008.4 994.9
00 20.03 В 2 н/о н/о +32.0 +26.9 74 +49 +49 опасность
перегрева
1006.7 993.2 +24.8
03 20.03 В 2 н/о н/о +28.3 +26.9 92 +44 +44 опасность
перегрева
1005.9 992.3
06 20.03 ЮВ 1 н/о н/о +27.0 +26.6 98 +42 +42 опасность
перегрева
1006.9 993.2
09 20.03 ЮВ 1 н/о н/о +26.9 +26.9 100 +42 +42 опасность
перегрева
1008.7 995.0
12 20.03 ЮВ 1 н/о н/о +26.8 +27.0 100 +42 +42 опасность
перегрева
1007.9 994.2 +32.0
15 20.03 ЮВ 1 н/о н/о +26.8 +25.4 92 +39 +39 очень
душно
1006.5 992.8
18 20.03 ЮВ 1 н/о н/о +26.5 +25.4 94 +39 +39 очень
душно
1007.9 994.2
21 20.03 В 3 н/о н/о +29.5 +28.0 92 +49 +49 опасность
перегрева
1008.8 995.2
00 21.03 В 3 н/о н/о +31.3 +29.0 88 +55 +55 опасность
перегрева
1007.4 993.9 +24.9
03 21.03 ЮВ 2 н/о н/о +28.5 +28.7 100 +48 +48 опасность
перегрева
1006.3 992.7
06 21.03 ЮВ 1 н/о н/о +26.7 +26.9 100 +41 +41 опасность
перегрева
1006.9 993.2
09 21.03 ЮВ 1 н/о н/о +26.8 +27.0 100 +42 +42 опасность
перегрева
1009.2 995.5
12 21.03 ЮВ 1 н/о н/о +26.6 +26.8 100 +41 +41 опасность
перегрева
1008.4 994.7 +32.5
15 21.03 ЮВ 2 н/о н/о +26.7 +26.9 100 +41 +41 опасность
перегрева
1006.8 993.1
18 21.03 ЮВ 1 н/о н/о +26.7 +26.9 100 +41 +41 опасность
перегрева
1007.7 994.0
21 21.03 ЮВ 2 н/о н/о +31.2 +28.1 84 +52 +52 опасность
перегрева
1008.6 995.1
00 22.03 В 2 н/о н/о +33.1 +27.3 72 +52 +52 опасность
перегрева
1007.4 994.0 +26.2
03 22.03 ЮВ 1 н/о н/о +29.4 +26.8 86 +46 +46 опасность
перегрева
1006.7 993.1
06 22.03 ЮВ 1 н/о н/о +27.1 +25.7 92 +40 +40 очень
душно
1007.9 994.2
09 22.03 ЮВ 1 н/о н/о +27.2 +24.6 86 +39 +39 очень
душно
1008.8 995.1
12 22.03 ЮВ 1 н/о н/о +26.8 +25.6 93 +39 +39 очень
душно
1007.8 994.1 +31.8
15 22.03 ЮВ 1 н/о н/о +26.8 +22.8 79 +36 +36 очень
душно
1006.5 992.8
18 22.03 ЮВ 1 н/о н/о +26.6 +25.2 92 +38 +38 очень
душно
1007.3 993.6
21 22.03 ЮВ 2 н/о н/о +29.9 +26.7 83 +46 +46 опасность
перегрева
1008.4 994.8
00 23.03 В 3 н/о н/о +32.4 +27.8 77 +53 +53 опасность
перегрева
1007.0 993.5 +26.1
03 23.03 ЮВ 1 н/о н/о +28.4 +26.4 89 +43 +43 опасность
перегрева
1006.2 992.6
06 23.03 ЮВ 1 н/о н/о +27.4 +24.8 86 +39 +39 очень
душно
1007.2 993.5
09 23.03 ЮВ 1 н/о н/о +27.0 +24.6 87 +38 +38 очень
душно
1008.5 994.8
12 23.03 ЮВ 1 н/о н/о +26.7 +24.3 87 +37 +37 очень
душно
1007.5 993.8 +33.5
15 23.03 штиль 0 н/о н/о +25.0 +25.2 100 +36 +36 очень
душно
1006.6 992.8
18 23.03 Ю 1 н/о н/о +26.4 +24.4 89 +37 +37 очень
душно
1007.6 993.9
21 23.03 ЮВ 2 н/о н/о +30.0 +27.0 84 +47 +47 опасность
перегрева
1007.9 994.3
00 24.03 В 2 н/о н/о +31.9 +28.2 81 +53 +53 опасность
перегрева
1006.7 993.2 +25.9
03 24.03 В 2 н/о н/о +30.0 +27.6 87 +49 +49 опасность
перегрева
1004.5 991.0
06 24.03 ЮВ 1 н/о н/о +27.3 +27.1 99 +43 +43 опасность
перегрева
1006.4 992.7
09 24.03 ЮВ 1 н/о н/о +26.1 +26.1 100 +39 +39 очень
душно
1008.2 994.4
12 24.03 ЮВ 1 н/о н/о +26.4 +25.9 97 +39 +39 очень
душно
1007.7 994.0 +33.1
15 24.03 ЮВ 1 н/о н/о +25.4 +24.5 95 +36 +36 очень
душно
1006.7 992.9
18 24.03 ЮВ 1 н/о н/о +26.7 +24.5 88 +38 +38 очень
душно
1007.6 993.9
21 24.03 ЮВ 2 н/о н/о +29.3 +26.7 86 +46 +46 опасность
перегрева
1009.1 995.5
00 25.03 В 2 н/о н/о +29.7 +27.5 88 +48 +48 опасность
перегрева
1007.6 994.0 +24.8
03 25.03 В 1 н/о н/о +28.2 +28.0 99 +47 +47 опасность
перегрева
1006.4 992.8
06 25.03 В 1 н/о н/о +27.2 +27.4 100 +43 +43 опасность
перегрева
1006.5 992.8
09 25.03 ЮВ 1 н/о н/о +27.0 +26.5 97 +41 +41 опасность
перегрева
1008.9 995.2
12 25.03 0 н/о
15 25.03 ЮВ 1 н/о н/о +25.8 +26.0 100 +38 +38 очень
душно
1007.4 993.6
18 25.03 штиль 0 н/о н/о +26.2 +26.2 100 +39 +39 очень
душно
1008.3 994.5
21 25.03 В 2 н/о н/о +30.7 +27.8 85 +50 +50 опасность
перегрева
1008.7 995.1
00 26.03 В 2 н/о н/о +31.3 +28.0 83 +52 +52 опасность
перегрева
1006.6 993.1 +25.0
03 26.03 В 1 н/о н/о +29.6 +25.3 78 +43 +43 опасность
перегрева
1005.9 992.3

 

Местоположение метеостанции Станция Le Piu Tai (Самоа): широта -13.46 долгота -172.39 высота над уровнем моря 121 м.

В архиве по умолчанию представлена погода на Станции Le Piu Tai за последнюю неделю. Архивные данные за месяц целиком и за предыдущие месяцы, начиная с января 2011 года, Вы можете получить, выбрав интересующий диапазон дат из раскрывающегося списка и нажав кнопку "Ввод!".


*Определитесь, кто Вы:
робот инопланетянин человек

Внимание! Время в таблицах - всемирное. Для получения местного времени необходимо прибавить поправку, которая равна 13 ч.

Смотрите также архив погоды в соседних городах и на ближайших метеорологических станциях:

Погода в Аэропорту Маота (Самоа) (34 км)
Погода на Станции Mount Talu (Самоа) (36 км)
Погода на Острове Маноно (Самоа) (53 км)
Погода Фалеоло (Американское Самоа) (57 км)
Погода в Аэропорту Фалеоло (Самоа) (57 км)
Погода на Фалеоло восток (Самоа) (60 км)
Погода Апиа (Американское Самоа) (84 км)
Погода на Станции Togitogiga (Самоа) (92 км)
Погода в Луфилуфи (Самоа) (101 км)
Погода на Станции Le Mafa (Самоа) (102 км)

Пояснения к столбцам:

Ветер - указаны скорость ветра в м/с - средняя за 10 мин, порывы в срок и между сроками (в фигурных скобках) и направление, откуда дует ветер: С - северный, СВ - северо-восточный, В - восточный, ЮВ - юго-восточный, Ю - южный, ЮЗ - юго-западный, З - западный, СЗ - северо-западный.
Видимость - горизонтальная дальность видимости в метрах или километрах. При видимости от 1 до 10 км при отсутствии осадков обычно наблюдается дымка, при ухудшении видимости до 1 км и менее - туман. В сухую погоду видимость может ухудшаться дымом, пылью или мглою.
Явления - указаны атмосферные явления, наблюдавшиеся в срок или в последний час перед сроком; фигурными скобками обозначены явления, наблюдавшиеся между сроками (за 1-3 часа до срока); квадратными скобками обозначены град или гололедные отложения с указанием их диаметра в мм.
Облачность - указаны через наклонную черту общая и нижняя облачность в баллах и высота нижней границы облаков в метрах; квадратными скобками обозначены формы облаков: Ci - перистые, Cs - перисто-слоистые, Cc - перисто-кучевые, Ac - высококучевые, As - высокослоистые, Sc - слоисто-кучевые, Ns - слоисто-дождевые, Cu - кучевые, Cb - кучево-дождевые. Подробнее классификацию облаков см. в Атласе облаков (PDF).
T - Температура воздуха - температура, измеренная на высоте 2 м над землей.
Td - Температура точки росы - температура, при понижении до которой содержащийся в воздухе водяной пар достигнет насыщения.
f - Относительная влажность воздуха - влажноcть воздуха, измеренная на высоте 2 м над землей.
Te - Эффективная температура - температура, которую ощущает одетый по сезону человек в тени. Характеристика душности погоды. При расчете учитывается влияние влажности воздуха и скорости ветра на теплоощущения человека.
Tes - Эффективная температура на солнце - температура, которую ощущает человек, с поправкой на солнечный нагрев. Характеристика знойности погоды. Зависит от высоты солнца над горизонтом, облачности и скорости ветра. Ночью, в пасмурную погоду, а также при ветре 12 м/с и более поправка равна нулю.
P - Атмосферное давление - приведенное к уровню моря атмосферное давление.
Po - Атмосферное давление - измеренное на уровне метеостанции атмосферное давление.
Tmin - Минимальная температура - минимум температуры воздуха на высоте 2 м над землей.
Tmax - Максимальная температура - максимум температуры воздуха на высоте 2 м над землей.
R - Количество осадков - Количество выпавших осадков за период времени, мм. При наведении курсора мыши на число - период времени, за который выпало указанное количество осадков.
R24 - Количество осадков - Количество выпавших осадков за 24 часа, мм.
S - Снежный покров - Высота снежного покрова, см. При наведении курсора мыши на число - состояние снежного покрова и степень покрытия местности в баллах.